Temp
8 9 9 9 9 8 8 9 9 9 9 10 10 9 9 9 9 9 11 11 11 12 12 12 13 13 13 13 14 15 12 13 15 16 17 20 21 22 22 22 22 22 22 23 22
8 8 9 9 8 8 8 8 8 8 8 9 10 9 9 9 9 8 12 12 10 11 11 11 12 12 13 14 14 14 12 14 17 17 17 20 20 22 21 20 21 22 22 22 21
8 8 8 8 8 8 8 8 8 8 8 8 8 8 8 8 8 10 11 11 11 10 11 11 11 12 12 13 13 15 14 15 17 18 19 19 20 21 20 19 20 21 21 21 21
8 8 8 8 8 8 8 7 7 7 7 7 8 8 8 7 8 10 10 11 11 9 10 10 11 11 12 11 14 12 15 16 16 17 17 18 20 19 20 20 20 20 21 20 21
7 7 7 7 7 8 7 7 7 7 7 7 7 7 7 7 8 10 10 10 10 10 9 9 10 11 10 12 13 13 15 16 17 17 18 18 18 18 19 20 20 20 20 21 21
7 7 7 7 7 7 7 7 7 7 7 7 7 6 6 6 9 9 10 10 10 10 10 9 10 11 12 12 12 14 15 15 16 17 18 18 18 19 19 20 20 20 20 20 21
7 7 7 7 7 7 6 6 6 6 7 7 7 6 6 7 9 9 9 9 10 10 10 10 11 11 12 12 12 13 13 14 15 16 16 17 17 17 20 19 20 20 20 20 21
7 7 7 7 6 6 6 6 6 6 6 6 7 6 5 7 9 8 9 9 9 9 10 11 10 10 11 11 12 11 12 12 14 15 17 17 15 17 19 19 19 20 20 20 20
7 7 7 6 7 6 6 6 6 6 6 6 6 6 6 7 7 9 8 9 9 9 9 9 10 10 11 10 9 10 10 11 13 15 15 16 15 17 19 19 19 19 20 20 20
8 7 7 6 6 6 6 6 5 5 6 5 6 5 7 8 8 8 8 8 9 9 10 9 10 7 7 9 9 10 10 10 11 14 15 14 15 16 19 18 18 19 20 20 20
7 7 7 6 6 6 6 5 5 5 5 6 6 7 9 8 8 8 8 8 8 8 8 9 7 7 7 8 9 9 9 10 12 14 14 15 15 16 17 18 17 19 20 18 18
7 7 7 6 6 6 5 5 6 5 5 6 7 6 8 9 8 8 8 7 8 7 7 7 7 8 9 9 9 9 8 9 11 13 13 15 15 16 17 17 18 19 20 18 16
7 7 7 6 6 5 5 6 5 5 5 5 7 5 6 7 7 8 8 8 7 7 7 6 8 10 9 9 9 9 8 9 10 12 13 13 14 15 16 18 19 20 21 18 17
7 7 6 6 5 6 5 6 5 5 5 6 5 5 5 6 6 7 8 8 8 7 7 7 8 9 8 8 9 8 10 11 11 11 12 13 13 13 16 16 15 18 18 17 15
7 6 6 6 6 5 6 6 5 5 5 6 6 5 5 5 6 7 8 8 7 8 7 6 8 8 8 9 9 9 10 10 11 10 10 11 12 12 15 17 18 17 16 16 16
7 6 6 5 5 6 5 6 5 5 5 6 5 5 6 6 7 7 7 6 6 6 6 7 9 9 9 9 9 9 9 9 9 10 10 11 11 13 14 17 17 16 15 14 14
7 6 6 6 5 5 5 5 5 5 8 6 6 6 6 6 6 6 6 6 6 6 5 5 7 7 8 7 8 7 7 7 9 9 10 13 12 13 16 16 17 15 14 13 14
7 6 6 6 5 5 5 4 5 8 7 6 6 6 6 7 6 6 5 5 6 4 6 5 4 6 7 7 8 7 7 8 8 11 13 12 11 13 17 15 18 15 14 13 13
6 6 6 5 5 5 4 5 5 7 7 6 5 6 6 6 6 6 5 6 6 6 5 5 5 8 9 9 9 7 6 9 9 9 12 11 14 16 15 14 14 13 13 12 12
6 6 6 6 5 4 4 5 6 7 6 5 6 6 6 6 5 5 5 7 7 7 7 6 6 9 7 7 8 9 11 8 7 10 11 12 14 14 14 13 13 13 12 11 11
6 6 6 6 4 4 4 5 7 8 6 6 6 6 6 6 6 7 7 9 9 8 8 7 5 7 6 6 8 7 7 10 9 9 12 12 14 14 14 14 13 13 13 12 12
6 6 6 6 5 4 5 6 6 6 5 6 5 6 7 7 6 7 8 8 11 10 7 6 5 6 7 9 11 11 9 10 9 11 12 12 13 14 13 13 13 13 13 12 12
6 6 5 6 5 5 5 5 6 5 5 5 6 6 7 8 7 8 9 11 9 9 7 5 6 6 9 8 10 9 9 10 8 10 14 12 13 13 12 12 13 13 12 12 12
6 6 5 5 5 6 6 5 5 4 5 6 7 7 8 8 9 9 9 11 10 10 8 6 6 7 9 10 10 10 10 9 8 11 13 12 13 13 13 13 11 13 13 13 12
6 6 6 6 5 6 6 6 5 5 5 6 6 7 7 9 10 9 9 10 10 10 8 7 7 7 7 8 10 12 11 10 11 12 13 13 14 13 12 12 12 13 12 12 11
5 6 6 6 6 5 5 6 6 6 6 7 6 9 8 8 10 10 10 10 10 9 7 7 6 9 11 12 11 12 12 13 13 14 15 14 15 16 13 14 13 12 13 12 11
6 6 7 7 7 6 7 6 6 5 6 7 7 8 8 9 11 11 11 12 11 10 9 8 8 10 11 12 12 11 13 13 13 14 15 14 15 13 13 13 12 12 13 12 12
Height
1493 1491 1490 1491 1490 1489 1488 1489 1489 1491 1492 1493 1494 1496 1498 1499 1499 1500 1500 1503 1503 1503 1504 1505 1506 1507 1508 1509 1511 1510 1516 1512 1508 1508 1500 1494 1497 1493 1493 1494 1496 1497 1496 1497 1496
1490 1488 1488 1488 1487 1487 1487 1487 1488 1488 1489 1490 1492 1493 1495 1496 1497 1496 1498 1499 1500 1501 1503 1504 1503 1504 1506 1506 1507 1505 1507 1502 1498 1499 1499 1494 1495 1492 1492 1493 1496 1495 1496 1495 1497
1487 1486 1486 1486 1485 1485 1485 1486 1486 1487 1487 1488 1489 1491 1493 1495 1496 1488 1491 1493 1495 1498 1500 1502 1503 1503 1503 1503 1502 1498 1498 1497 1496 1496 1494 1493 1492 1490 1490 1493 1493 1494 1494 1496 1497
1484 1484 1484 1485 1484 1484 1484 1485 1485 1485 1485 1486 1487 1488 1491 1494 1497 1488 1489 1489 1491 1494 1498 1500 1502 1502 1501 1501 1498 1499 1494 1496 1495 1493 1491 1491 1489 1486 1487 1487 1489 1491 1491 1491 1491
1482 1482 1482 1482 1482 1482 1483 1483 1484 1484 1483 1484 1486 1487 1490 1492 1486 1487 1488 1489 1489 1490 1494 1498 1500 1501 1500 1497 1496 1492 1492 1490 1489 1488 1485 1486 1485 1485 1481 1483 1486 1487 1488 1487 1486
1478 1479 1479 1479 1479 1481 1481 1482 1482 1483 1483 1483 1484 1485 1488 1488 1483 1485 1486 1488 1489 1490 1492 1495 1496 1498 1497 1495 1494 1488 1486 1483 1482 1482 1482 1482 1479 1480 1478 1480 1483 1484 1482 1482 1482
1475 1475 1475 1476 1477 1478 1479 1480 1480 1481 1482 1482 1482 1483 1484 1477 1480 1481 1484 1485 1487 1489 1490 1493 1495 1496 1492 1490 1489 1485 1483 1478 1476 1478 1479 1481 1475 1471 1473 1477 1478 1477 1476 1477 1476
1472 1471 1472 1473 1474 1475 1477 1478 1478 1479 1480 1481 1481 1481 1477 1473 1477 1478 1480 1481 1483 1485 1488 1489 1490 1490 1489 1489 1486 1487 1482 1481 1475 1476 1474 1479 1475 1470 1470 1472 1472 1471 1470 1472 1471
1467 1467 1468 1470 1471 1473 1474 1476 1476 1477 1478 1479 1480 1480 1473 1470 1469 1473 1477 1479 1482 1483 1485 1487 1489 1487 1486 1488 1493 1489 1488 1485 1480 1473 1474 1472 1469 1467 1468 1469 1466 1465 1462 1465 1466
1462 1462 1464 1466 1468 1470 1470 1473 1474 1475 1476 1476 1478 1482 1470 1468 1468 1469 1474 1477 1480 1482 1484 1485 1484 1484 1486 1488 1485 1486 1487 1483 1479 1469 1472 1471 1465 1462 1461 1459 1459 1459 1459 1459 1461
1457 1458 1459 1461 1464 1466 1469 1471 1474 1474 1472 1468 1467 1465 1464 1465 1466 1468 1471 1475 1479 1481 1480 1480 1481 1482 1487 1483 1485 1485 1485 1483 1471 1468 1468 1463 1461 1454 1455 1455 1453 1453 1453 1455 1457
1452 1453 1455 1457 1460 1462 1464 1466 1467 1469 1467 1463 1462 1463 1462 1463 1467 1467 1471 1474 1476 1476 1479 1481 1470 1479 1480 1482 1484 1485 1487 1477 1471 1467 1467 1459 1454 1446 1447 1447 1445 1445 1448 1452 1454
1446 1448 1449 1453 1456 1457 1458 1461 1465 1466 1465 1457 1454 1454 1457 1461 1460 1462 1466 1468 1470 1474 1475 1471 1466 1467 1474 1477 1479 1479 1481 1476 1477 1468 1461 1464 1453 1443 1439 1439 1437 1438 1441 1445 1446
1440 1443 1445 1448 1455 1453 1454 1459 1463 1464 1463 1453 1453 1451 1451 1455 1455 1457 1459 1464 1466 1466 1470 1467 1467 1469 1472 1471 1473 1477 1471 1473 1472 1478 1469 1457 1454 1438 1433 1432 1429 1430 1433 1438 1443
1435 1437 1440 1442 1446 1447 1451 1456 1459 1464 1467 1451 1450 1449 1449 1452 1451 1451 1453 1457 1457 1458 1464 1457 1456 1461 1464 1458 1472 1466 1472 1472 1472 1473 1475 1463 1463 1435 1422 1423 1420 1420 1425 1429 1435
1428 1432 1435 1439 1444 1445 1447 1454 1459 1465 1462 1445 1447 1447 1449 1450 1449 1449 1450 1455 1453 1455 1455 1455 1454 1455 1455 1459 1465 1466 1472 1473 1471 1471 1467 1456 1457 1430 1419 1409 1405 1410 1420 1424 1431
1419 1424 1429 1432 1435 1441 1445 1452 1460 1458 1437 1442 1442 1444 1446 1444 1446 1448 1449 1448 1448 1450 1450 1453 1452 1454 1454 1460 1463 1468 1475 1480 1471 1470 1451 1437 1451 1431 1398 1396 1392 1401 1411 1420 1427
1413 1418 1422 1425 1430 1437 1443 1453 1452 1431 1432 1437 1439 1441 1441 1440 1442 1443 1444 1443 1444 1449 1446 1454 1460 1446 1447 1447 1450 1459 1465 1463 1463 1443 1429 1434 1438 1416 1393 1386 1384 1393 1403 1414 1423
1404 1412 1416 1419 1426 1432 1440 1443 1433 1428 1430 1435 1439 1438 1437 1438 1440 1439 1438 1436 1436 1441 1449 1450 1445 1432 1432 1432 1443 1450 1454 1443 1449 1440 1434 1432 1414 1397 1392 1391 1391 1399 1406 1414 1420
1399 1406 1411 1413 1421 1427 1433 1429 1427 1424 1430 1434 1432 1434 1431 1432 1438 1436 1434 1424 1428 1428 1434 1439 1437 1423 1428 1433 1437 1436 1435 1451 1450 1433 1426 1423 1409 1403 1396 1395 1395 1401 1405 1413 1419
1396 1402 1405 1408 1417 1423 1424 1423 1421 1422 1426 1429 1427 1427 1428 1429 1428 1427 1422 1416 1415 1419 1427 1432 1440 1425 1427 1424 1418 1429 1435 1427 1435 1436 1413 1416 1403 1382 1384 1387 1393 1398 1403 1408 1415
1387 1395 1401 1403 1413 1417 1418 1417 1419 1420 1422 1424 1426 1423 1422 1422 1423 1422 1413 1411 1406 1412 1423 1427 1431 1422 1413 1404 1404 1409 1419 1420 1427 1412 1396 1396 1401 1379 1381 1384 1389 1396 1402 1408 1414
1385 1392 1398 1401 1404 1410 1413 1415 1417 1416 1417 1418 1417 1418 1414 1412 1420 1412 1405 1401 1404 1410 1417 1425 1426 1421 1399 1402 1401 1402 1408 1407 1415 1408 1385 1398 1402 1384 1383 1387 1389 1395 1403 1409 1415
1381 1389 1394 1398 1397 1402 1407 1411 1412 1411 1411 1410 1408 1412 1411 1408 1405 1402 1401 1398 1399 1401 1409 1419 1416 1407 1394 1390 1388 1391 1398 1403 1407 1398 1383 1389 1392 1390 1389 1388 1391 1396 1401 1406 1413
1374 1382 1384 1389 1396 1398 1402 1404 1406 1406 1405 1403 1404 1403 1402 1401 1397 1399 1399 1395 1399 1402 1410 1414 1405 1399 1395 1390 1384 1382 1384 1395 1397 1385 1387 1391 1387 1388 1387 1386 1388 1393 1400 1407 1412
1372 1378 1383 1386 1391 1396 1398 1397 1397 1399 1399 1396 1397 1392 1395 1397 1389 1392 1392 1394 1396 1404 1407 1409 1402 1387 1374 1371 1380 1379 1375 1381 1389 1380 1381 1385 1384 1379 1385 1387 1390 1393 1398 1404 1410
1369 1374 1377 1380 1385 1390 1389 1388 1390 1396 1392 1391 1390 1393 1392 1389 1386 1385 1388 1384 1387 1394 1399 1401 1396 1388 1385 1378 1381 1390 1377 1378 1377 1375 1378 1387 1385 1380 1386 1388 1389 1393 1396 1401 1408
Wind_Speed
10 9 9 10 9 8 7 7 8 8 8 10 12 17 14 14 12 12 14 9 7 8 10 12 9 8 10 15 14 15 3 8 10 9 11 18 4 4 4 2 4 9 15 8 4
11 10 9 10 10 8 6 6 6 7 9 10 14 12 13 12 14 18 17 13 12 15 14 9 5 8 12 9 11 8 5 9 4 9 7 21 9 4 1 2 5 13 11 9 6
12 10 9 9 9 7 5 5 5 6 7 9 11 12 10 8 9 21 19 18 18 15 12 10 9 8 5 15 12 7 10 5 8 23 24 15 6 4 1 3 7 10 14 6 6
12 11 10 9 7 5 4 5 5 5 5 6 7 9 9 7 7 3 2 6 7 16 16 11 7 4 3 4 17 10 17 19 20 30 25 7 11 5 9 9 12 17 21 18 14
13 12 12 10 8 6 5 5 5 5 5 5 5 5 6 11 18 6 1 5 7 7 18 15 9 10 4 6 8 15 15 21 27 31 32 27 17 15 12 16 15 20 24 22 19
15 14 13 11 9 7 6 6 5 5 5 5 6 6 10 14 13 22 14 7 8 3 1 16 9 11 13 9 12 12 16 22 29 25 24 19 13 14 12 15 16 22 27 23 24
16 15 13 13 10 8 7 6 6 6 7 6 6 7 13 25 7 9 10 14 12 10 6 8 12 17 5 5 11 13 13 15 20 19 17 21 17 14 27 22 24 31 31 27 28
16 14 12 12 11 9 9 8 7 8 7 6 7 7 12 14 17 15 16 16 18 18 18 13 10 12 14 8 9 5 6 14 7 14 13 16 21 9 26 16 26 33 35 27 17
17 12 12 10 12 11 10 10 9 10 9 7 6 7 11 8 15 24 16 15 6 3 6 16 11 7 7 5 4 4 8 7 10 8 7 9 15 11 26 22 30 32 27 25 18
18 13 14 12 10 12 11 10 9 10 10 6 8 4 12 11 11 12 20 16 12 6 8 12 9 4 0 5 12 13 7 6 7 6 10 14 18 11 19 21 28 27 22 18 21
18 14 13 15 11 14 12 9 6 4 15 11 11 7 2 2 6 10 12 19 19 16 7 11 7 9 12 14 8 5 8 11 6 9 10 18 18 20 21 25 19 20 21 16 25
19 15 14 16 12 15 14 8 7 4 7 21 28 22 21 5 5 11 12 16 17 14 8 6 18 12 8 10 10 13 14 20 15 14 11 14 19 23 17 16 25 26 27 24 27
20 17 14 15 14 17 18 16 14 13 6 8 26 26 30 21 18 14 20 23 11 11 13 17 3 19 14 12 13 15 16 16 15 14 16 10 16 23 15 26 28 32 32 31 36
20 18 16 17 16 18 17 12 12 9 4 3 5 5 9 10 5 26 25 20 10 17 15 14 22 13 15 18 12 16 13 15 17 11 10 3 8 16 17 14 9 24 24 36 36
21 21 20 20 9 20 8 9 8 6 5 7 5 2 0 9 8 10 28 23 17 14 10 8 10 19 20 20 12 18 5 11 12 14 14 19 8 7 8 20 19 17 22 37 40
24 23 23 22 17 13 13 10 13 3 8 6 5 5 3 9 4 1 5 19 5 11 14 15 4 5 14 14 11 2 1 12 8 9 12 20 14 6 8 20 20 13 30 36 40
27 26 27 27 27 19 15 15 3 4 2 5 4 6 8 6 7 7 4 11 6 7 6 6 15 2 4 3 2 5 4 3 6 6 13 10 13 15 5 11 13 16 31 38 42
27 26 25 29 21 26 18 3 6 4 4 4 3 7 6 5 6 8 3 8 16 8 2 4 5 13 12 19 9 13 15 7 7 8 8 10 8 7 19 8 19 32 40 42 43
25 25 30 33 25 25 20 4 7 6 4 5 3 4 5 8 7 9 11 4 5 17 7 5 6 2 8 13 20 10 13 25 6 5 5 5 8 4 2 8 17 25 33 34 41
23 26 22 33 32 33 6 5 4 4 7 4 7 9 6 7 9 9 8 7 7 15 14 2 7 7 14 15 16 13 15 10 5 5 5 9 5 5 6 10 15 18 25 30 38
25 12 15 34 34 18 4 6 5 7 10 8 6 5 7 4 9 4 5 6 13 16 19 8 6 4 1 7 15 9 4 8 3 7 4 5 5 5 13 15 17 17 28 34 40
19 5 20 38 5 3 4 5 4 7 15 9 5 7 5 8 7 5 10 9 14 11 16 10 3 5 9 8 12 10 12 13 7 10 5 4 3 3 9 9 13 18 27 34 39
18 7 26 33 5 4 2 3 6 7 8 8 9 11 12 6 7 9 6 10 11 9 15 9 4 3 4 3 9 10 12 8 9 13 3 5 4 2 7 8 14 20 26 31 37
9 4 9 17 5 6 5 4 4 14 14 15 7 12 10 7 13 4 9 7 25 17 19 14 5 7 4 3 6 7 14 14 13 3 1 1 6 2 5 8 9 23 31 36 39
7 4 6 5 6 6 10 7 5 4 10 11 4 9 9 5 12 9 9 7 13 21 13 7 5 8 13 16 8 8 12 19 15 6 4 4 5 8 10 10 12 25 29 32 35
10 5 7 7 11 12 9 8 9 6 5 6 9 12 13 8 6 6 7 5 6 11 5 9 5 10 10 7 14 9 14 9 6 4 2 3 3 2 4 12 12 26 32 30 32
11 11 8 6 7 7 6 12 13 8 10 20 14 9 7 8 15 2 5 10 3 7 9 8 4 5 3 5 7 2 10 5 4 2 5 2 5 5 6 8 12 24 29 31 34
Wind_Direction
298 301 302 309 311 306 297 287 284 274 259 238 245 241 253 251 253 254 253 248 249 267 280 273 252 228 220 243 235 247 232 230 225 231 252 285 263 211 169 159 317 293 292 243 182
294 297 300 307 311 304 299 294 282 276 267 244 239 242 242 251 258 255 261 255 231 256 260 275 247 293 245 237 230 202 210 233 214 228 240 262 257 237 163 354 294 299 359 188 134
294 287 289 299 309 300 297 295 285 274 269 262 248 247 254 257 287 274 270 253 238 247 246 252 245 296 269 235 232 245 240 262 252 258 269 276 267 217 67 285 282 286 309 310 266
292 281 275 284 296 284 292 299 297 285 272 270 261 247 236 214 236 170 265 280 264 230 243 244 245 270 307 260 248 256 250 247 260 270 274 262 284 248 220 239 282 293 290 297 291
283 280 266 267 277 270 281 289 289 284 270 247 259 249 213 219 228 173 176 44 75 214 231 227 245 257 231 254 297 248 251 251 245 245 259 267 255 256 248 262 267 276 277 276 276
275 277 264 256 259 266 277 286 288 285 270 253 236 238 214 243 255 235 240 235 104 44 148 213 221 235 273 251 258 280 270 267 255 261 259 266 252 244 252 251 262 268 267 269 273
280 271 262 249 249 255 271 283 286 283 276 261 241 239 240 238 191 201 234 243 241 234 234 235 246 248 274 305 296 292 277 266 254 253 252 274 265 241 254 258 264 259 262 264 275
285 269 260 247 241 249 259 275 287 277 268 260 253 236 250 259 241 226 204 216 226 237 232 216 255 292 246 258 314 284 268 254 265 252 253 238 260 258 254 245 257 261 264 259 210
268 270 253 252 234 244 252 262 278 269 261 263 250 227 264 292 240 218 202 213 190 196 229 230 252 247 232 210 279 252 269 282 269 240 243 242 266 247 255 252 259 262 271 231 202
257 257 245 241 241 232 246 262 275 280 245 219 217 249 260 248 252 226 213 198 208 222 209 216 230 217 173 188 226 231 231 243 242 239 243 260 262 265 248 247 240 265 241 206 196
250 245 246 233 239 226 234 253 270 244 214 202 210 199 253 304 204 235 205 210 220 243 217 214 214 210 221 227 227 289 280 281 286 244 225 238 245 256 253 248 248 248 233 209 181
241 236 242 223 229 220 226 213 212 230 271 240 243 246 242 205 271 221 198 192 207 213 212 255 240 211 214 228 231 245 268 271 288 272 271 252 239 241 239 230 235 241 247 186 164
234 227 222 216 212 209 223 230 246 261 269 228 241 241 236 241 232 221 191 203 200 204 202 221 213 198 215 222 222 231 233 251 258 299 291 279 272 252 243 233 230 234 240 194 180
232 222 207 202 209 209 222 235 255 267 270 201 219 264 229 219 258 221 215 194 215 208 205 236 235 239 217 233 213 239 239 257 265 278 261 341 269 250 230 229 208 224 215 191 177
227 218 206 203 193 187 187 197 200 197 298 152 167 207 80 181 141 215 208 211 216 198 184 214 180 208 221 229 211 252 246 280 273 253 279 272 256 262 198 228 230 221 191 185 177
222 215 205 183 184 174 156 149 135 124 248 168 155 179 186 198 229 275 198 214 219 233 244 241 237 206 222 229 205 241 342 282 274 269 253 244 245 245 207 218 225 206 168 166 166
215 211 209 193 195 169 157 138 117 205 167 174 185 184 206 200 213 206 195 204 197 204 207 192 242 189 158 215 210 158 146 253 220 218 242 201 235 254 219 231 187 160 163 161 166
216 207 206 200 199 190 161 104 201 216 201 124 162 199 207 186 217 213 217 214 217 225 92 172 264 187 190 209 185 194 192 208 200 210 250 174 219 234 246 263 159 157 156 157 160
210 203 205 194 189 180 156 193 206 195 146 150 118 210 199 212 233 212 227 220 233 203 186 182 250 203 212 198 193 194 206 210 303 283 195 204 235 311 60 106 128 139 146 153 160
201 195 208 202 190 178 175 219 218 141 130 125 209 194 215 197 195 190 187 207 206 193 197 162 278 222 266 211 195 228 179 179 179 257 165 207 198 197 177 149 143 148 152 155 162
195 183 206 200 181 175 200 215 209 201 172 189 209 221 223 201 204 207 225 271 203 193 188 181 218 201 334 217 183 187 195 207 239 235 232 157 233 209 175 162 158 162 162 160 165
181 167 180 183 160 188 189 191 154 191 200 221 246 230 233 206 208 233 218 211 179 202 177 194 212 257 244 246 192 182 182 194 191 222 205 126 293 1 160 164 158 162 162 164 170
157 121 184 186 173 177 186 170 215 199 205 202 216 215 206 215 215 206 238 227 161 156 165 158 217 274 236 240 166 182 205 213 229 273 233 113 212 6 94 141 155 149 156 159 168
140 143 157 193 137 179 172 197 217 220 234 214 218 223 237 229 226 203 244 228 171 174 159 151 215 228 258 18 158 189 188 214 236 245 282 84 117 140 148 147 137 153 162 166 172
142 162 173 158 191 177 177 186 178 233 207 222 258 229 233 237 211 212 202 257 170 165 146 183 278 226 241 244 227 195 207 202 219 251 74 181 124 191 185 176 164 157 156 160 167
141 160 161 156 186 201 188 194 197 223 213 213 218 207 218 235 237 181 172 178 190 169 146 168 274 310 355 130 194 186 230 201 206 231 219 124 323 207 117 143 142 158 161 167 170
166 154 162 154 170 173 208 219 203 194 244 241 224 232 259 246 252 193 351 195 139 161 179 181 246 336 355 164 140 315 232 172 261 352 174 178 206 101 144 170 168 165 167 168 174